Hourly Data Report for December 14, 2020

CARBERRY CS
MANITOBA
Current Station Operator: ECCC - MSC

49°54'20.900" N
99°21'26.800" W
383.50 m
5010547
71170
WZE

Download Data

Hourly Data (December 2020)
Hourly Data Report for December 14, 2020
TIME
LST
Temp Definition
°C
Dew Point Definition
°C
Rel Hum Definition
%
Precip. Amount Definition
mm

Wind Dir Definition
10's deg

Wind Spd Definition
km/h
Visibility Definition
km
Stn Press Definition
kPa
Hmdx Definition


Wind Chill Definition


Weather Definition


00:00 -21.5 -24.8 74 0.0 32 8   97.92   -28 LegendNANA
01:00 -23.0 -25.9 77 0.0 29 4   97.95   -27 LegendNANA
02:00 -23.0 -25.8 78 0.0 26 7   98.02   -29 LegendNANA
03:00 -23.7 -26.6 77 0.0 25 9   98.08   -31 LegendNANA
04:00 -25.2 -28.2 76 0.0 27 7   98.13   -32 LegendNANA
05:00 -24.8 -27.5 78 0.0 26 5   98.11   -30 LegendNANA
06:00 -25.0 -27.8 78 0.0 22 7   98.11   -31 LegendNANA
07:00 -25.4 -28.3 77 0.0 22 1   98.09   -26 LegendNANA
08:00 -25.3 -28.1 78 0.0 25 6   98.12   -31 LegendNANA
09:00 -25.0 -27.9 77 0.0 20 8   98.14   -32 LegendNANA
10:00 -23.7 -26.9 75 0.0 21 11   98.20   -32 LegendNANA
11:00 -21.3 -24.7 74 0.0 22 10   98.20   -29 LegendNANA
12:00 -19.5 -23.1 73 0.0 22 10   98.14   -27 LegendNANA
13:00 -18.6 -23.1 68 0.0 26 8   98.06   -25 LegendNANA
14:00 -16.6 -21.3 67 0.0 27 3   98.04   -19 LegendNANA
15:00 -16.2 -20.9 67 0.0 18 7   97.99   -21 LegendNANA
16:00 -16.4 -21.1 67 0.0 20 6   97.98   -21 LegendNANA
17:00 -16.9 -20.9 71 0.0 16 10   97.89   -24 LegendNANA
18:00 -16.4 -20.5 71 0.0 16 6   97.89   -21 LegendNANA
19:00 -16.0 -19.5 74 0.0 15 11   97.84   -23 LegendNANA
20:00 -15.6 -19.1 75 0.0 14 9   97.81   -22 LegendNANA
21:00 -15.5 -18.5 77 0.0 12 8   97.78   -21 LegendNANA
22:00 -15.3 -18.1 79 0.0 13 11   97.70   -22 LegendNANA
23:00 -14.8 -17.5 80 0.0 12 8   97.68   -20 LegendNANA

Notes on Data Quality.

Legend

  • E = Estimated
  • M = Missing
  • NA = Not Available*
  • [empty] = Indicates an unobserved value
Date modified: